Location: Unspecified
(0.0000°N, 0.0000°E)
Time: 02:14:11
(UTC+00:00)

Courier 1B Rocket - Pass Details

Date: 21 December 2018
Orbit: 920 x 1202 km, 28.3° (Epoch: 16 January)

Event Time Altitude Azimuth Distance (km) Brightness Sun altitude
Rises 15:17:53 0° 292° (WNW) 3,929 8.6 36.2°
Reaches altitude 10° 15:20:38 10° 288° (WNW) 3,008 8.2 35.6°
Maximum altitude 15:28:01 60° 210° (SSW) 1,324 6.9 34.0°
Drops below altitude 10° 15:35:43 10° 131° (SE) 3,130 7.5 32.3°
Sets 15:38:39 0° 127° (SE) 4,097 8.0 31.6°
